GW3211 Weather Reports


time (UTC)temp
C
wind
direction
speed
KPH
gust
KPH
rain 1hr
cm
rain 24hr
cm
rain mn
cm
humidity
%
barometer
mb
20260507091552 12 29 3.2 8.0 0.00 0.61 0.33 97 1013.9
20260507091024 12 54 3.2 9.7 0.00 0.61 0.33 96 1013.9
20260507090451 12 28 4.8 9.7 0.00 0.61 0.33 96 1013.9
20260507085952 12 6 4.8 9.7 0.00 0.61 0.33 97 1013.7
20260507085422 12 98 3.2 8.0 0.00 0.61 0.33 98 1013.7
20260507084853 12 46 1.6 8.0 0.00 0.61 0.33 98 1013.6
20260507084352 12 22 3.2 8.0 0.00 0.61 0.33 97 1013.9
20260507083822 12 97 4.8 8.0 0.00 0.61 0.33 97 1013.8
20260507083251 12 3 3.2 8.0 0.00 0.61 0.33 97 1013.7
20260507082753 12 66 1.6 8.0 0.00 0.61 0.33 97 1013.6
20260507082223 12 68 1.6 11.3 0.00 0.61 0.33 97 1013.4
20260507081912 12 18 9.7 9.7 0.00 0.61 0.33 96 1013.4
20260507081150 12 12 3.2 9.7 0.00 0.61 0.33 96 1013.2
20260507080622 12 20 1.6 11.3 0.00 0.61 0.33 96 1013.0
20260507080104 12 105 3.2 11.3 0.00 0.61 0.33 96 1013.2
20260507075253 13 359 4.8 20.9 0.00 0.61 0.33 96 1013.1
20260507074452 12 345 4.8 12.9 0.00 0.61 0.33 97 1012.7
20260507073949 12 32 3.2 12.9 0.00 0.61 0.33 99 1012.4
20260507073420 13 16 6.4 14.5 0.00 0.61 0.33 99 1012.5
20260507072849 13 68 4.8 9.7 0.00 0.61 0.33 100 1013.0
20260507072610 13 4 8.0 9.7 0.00 0.61 0.33 100 1012.6
20260507071822 13 56 4.8 11.3 0.00 0.61 0.33 100 1012.5
20260507071249 13 5 0.0 11.3 0.00 0.61 0.33 100 1012.3
20260507070748 13 54 0.0 8.0 0.00 0.61 0.33 100 1012.6
20260507070220 13 27 0.0 8.0 0.00 0.61 0.33 100 1012.7
20260507065648 13 165 3.2 9.7 0.00 0.61 0.33 100 1012.8
20260507065148 13 336 1.6 9.7 0.00 0.61 0.33 100 1012.6
20260507064620 13 16 9.7 11.3 0.00 0.61 0.33 100 1012.3
20260507064048 13 68 0.0 17.7 0.00 0.61 0.33 100 1012.1
20260507063547 13 6 3.2 17.7 0.03 0.61 0.33 100 1012.2
20260507063023 13 18 6.4 16.1 0.05 0.61 0.33 100 1011.9
20260507061948 13 24 11.3 16.1 0.13 0.61 0.33 100 1011.9
20260507061637 13 357 3.2 14.5 0.18 0.61 0.33 100 1012.4
20260507060848 13 37 4.8 17.7 0.23 0.61 0.33 100 1012.3
20260507060348 13 310 8.0 17.7 0.28 0.61 0.33 100 1012.3
20260507055820 13 331 6.4 17.7 0.28 0.61 0.33 100 1012.4
20260507055508 13 20 9.7 17.7 0.30 0.61 0.33 100 1012.8
20260507054748 14 272 0.0 9.7 0.30 0.61 0.33 100 1012.5
20260507054215 14 12 3.2 11.3 0.33 0.61 0.33 100 1012.3
20260507053646 14 346 3.2 11.3 0.30 0.58 0.30 100 1012.0
20260507053158 15 322 6.4 9.7 0.28 0.56 0.28 100 1012.3
20260507052617 15 305 3.2 6.4 0.23 0.51 0.23 100 1012.8
20260507052046 15 2 3.2 6.4 0.20 0.48 0.20 99 1012.3
20260507051546 15 159 3.2 6.4 0.15 0.43 0.15 99 1012.7
20260507051238 15 221 1.6 6.4 0.10 0.38 0.10 97 1012.5
20260507050516 16 328 0.0 4.8 0.05 0.33 0.05 96 1012.2
20260507045814 16 57 3.2 6.4 0.03 0.30 0.03 94 1012.3
20260507045316 16 333 0.0 8.0 0.03 0.30 0.03 93 1012.4
20260507044744 16 250 3.2 8.0 0.00 0.28 0.00 91 1012.5
20260507044214 17 352 0.0 8.0 0.00 0.28 0.00 89 1012.8
20260507043713 17 137 0.0 8.0 0.00 0.28 0.00 87 1012.4
20260507043143 17 268 3.2 6.4 0.00 0.28 0.00 87 1012.4
20260507042613 17 290 3.2 8.0 0.00 0.28 0.00 87 1012.3
20260507042334 17 301 0.0 9.7 0.00 0.28 0.00 87 1012.2
20260507041543 17 352 3.2 9.7 0.00 0.28 0.00 87 1012.0
20260507041237 17 330 0.0 9.7 0.00 0.28 0.00 87 1011.8
20260507040513 17 36 6.4 11.3 0.00 0.28 0.00 88 1011.7
20260507035943 17 34 4.8 17.7 0.00 0.28 0.28 88 1011.7
20260507035442 17 12 6.4 20.9 0.00 0.28 0.28 89 1012.1
20260507034912 17 35 4.8 20.9 0.00 0.28 0.28 89 1012.2
20260507033312 18 324 4.8 6.4 0.00 0.28 0.28 95 1011.7
20260507032742 18 289 3.2 6.4 0.00 0.28 0.28 95 1011.6
20260507032241 18 256 0.0 11.3 0.00 0.28 0.28 95 1011.6
20260507031711 18 137 0.0 11.3 0.00 0.28 0.28 96 1011.6
20260507031141 18 257 3.2 6.4 0.00 0.28 0.28 97 1011.6
20260507030640 18 344 0.0 4.8 0.00 0.28 0.28 97 1011.7
20260507030110 18 228 0.0 4.8 0.00 0.28 0.28 97 1011.7
20260507025541 18 276 0.0 6.4 0.00 0.28 0.28 98 1011.4
20260507025040 17 341 0.0 6.4 0.00 0.28 0.28 100 1011.6
20260507024510 17 300 3.2 3.2 0.00 0.28 0.28 100 1011.2
20260507023939 17 88 0.0 3.2 0.00 0.28 0.28 100 1010.8
20260507023440 17 30 0.0 3.2 0.00 0.28 0.28 100 1011.1
20260507022910 17 14 0.0 3.2 0.00 0.28 0.28 100 1011.0
20260507022340 17 356 0.0 3.2 0.00 0.28 0.28 100 1010.9
20260507021840 17 141 0.0 3.2 0.00 0.28 0.28 100 1010.9
20260507021529 17 142 0.0 3.2 0.00 0.28 0.28 100 1011.0
20260507020238 17 352 0.0 0.0 0.00 0.28 0.28 100 1010.8
20260507015138 17 127 0.0 3.2 0.00 0.28 0.28 100 1010.8
20260507014638 17 28 0.0 1.6 0.00 0.28 0.28 100 1011.2
20260507014122 17 5 0.0 1.6 0.00 0.28 0.28 100 1011.2
20260507013539 17 46 0.0 3.2 0.00 0.28 0.28 100 1011.4
20260507013315 17 221 0.0 3.2 0.00 0.28 0.28 100 1011.7
20260507012520 17 156 1.6 3.2 0.00 0.28 0.28 100 1011.5
20260507011938 17 114 0.0 1.6 0.00 0.28 0.28 100 1011.7
20260507011658 17 204 0.0 3.2 0.00 0.28 0.28 100 1011.7
20260507011128 17 238 0.0 3.2 0.00 0.28 0.28 100 1011.6
20260507010338 17 170 0.0 3.2 0.00 0.28 0.28 99 1011.8
20260507010058 17 7 0.0 3.2 0.00 0.28 0.28 99 1011.4
20260507005531 17 222 0.0 3.2 0.00 0.28 0.28 99 1011.5
20260507004736 17 24 3.2 3.2 0.00 0.28 0.28 98 1010.8
20260507004236 17 146 0.0 3.2 0.00 0.28 0.28 98 1011.1
20260507003706 17 139 0.0 3.2 0.00 0.28 0.28 97 1011.2
20260507002106 18 81 0.0 3.2 0.00 0.28 0.28 95 1011.0
20260507001535 18 131 1.6 3.2 0.00 0.28 0.28 95 1011.0
20260507001049 18 29 0.0 0.0 0.00 0.28 0.28 94 1011.2
20260507000505 18 116 0.0 3.2 0.00 0.28 0.28 94 1011.1
20260506235935 18 204 0.0 3.2 0.00 0.28 0.28 94 1010.9
20260506235434 19 120 0.0 3.2 0.00 0.28 0.28 93 1011.0
20260506234905 19 136 0.0 3.2 0.00 0.28 0.28 92 1010.7
20260506234336 19 147 0.0 3.2 0.00 0.28 0.28 91 1010.6
20260506233835 20 120 0.0 3.2 0.00 0.28 0.28 90 1010.7
20260506233304 20 223 0.0 4.8 0.00 0.28 0.28 89 1010.7
20260506232734 20 134 3.2 4.8 0.00 0.28 0.28 89 1010.4
20260506232234 20 229 3.2 4.8 0.00 0.28 0.28 88 1010.3
20260506231704 20 158 4.8 8.0 0.00 0.28 0.28 87 1010.3
20260506231134 20 235 0.0 16.1 0.00 0.28 0.28 87 1010.5
20260506230646 20 162 0.0 16.1 0.00 0.28 0.28 87 1010.5
20260506230106 20 245 3.2 8.0 0.00 0.28 0.28 86 1010.7
20260506225533 20 315 3.2 17.7 0.00 0.28 0.28 86 1010.6
20260506225034 20 332 0.0 19.3 0.00 0.28 0.28 86 1010.4
20260506224503 20 216 11.3 19.3 0.00 0.28 0.28 85 1010.3
20260506224002 20 204 3.2 11.3 0.00 0.28 0.28 86 1010.4
20260506222902 20 311 3.2 12.9 0.00 0.28 0.28 85 1010.4
20260506222634 20 241 4.8 11.3 0.00 0.28 0.28 85 1010.4
20260506221831 20 236 6.4 14.5 0.00 0.28 0.28 85 1010.5
20260506221303 20 201 6.4 19.3 0.00 0.28 0.28 85 1010.5
20260506220801 20 218 4.8 19.3 0.00 0.28 0.28 84 1010.7
20260506220231 21 201 6.4 20.9 0.00 0.28 0.28 84 1010.3
20260506215701 21 260 3.2 20.9 0.00 0.28 0.28 84 1010.7
20260506215202 20 207 6.4 25.7 0.00 0.28 0.28 83 1010.5
20260506214631 21 217 6.4 25.7 0.00 0.28 0.28 83 1010.6
20260506214101 20 229 11.3 24.1 0.00 0.28 0.28 84 1010.4
20260506213601 21 207 9.7 24.1 0.00 0.28 0.28 84 1010.3
20260506213031 21 250 14.5 20.9 0.00 0.28 0.28 83 1010.1
20260506212501 21 193 6.4 20.9 0.00 0.28 0.28 83 1010.2
20260506211959 21 236 9.7 22.5 0.00 0.28 0.28 83 1010.3
20260506211429 20 221 6.4 22.5 0.00 0.28 0.28 84 1010.4
20260506210400 20 220 14.5 19.3 0.00 0.28 0.28 83 1010.1
20260506205829 21 219 9.7 24.1 0.00 0.28 0.28 83 1010.0
20260506205259 21 228 4.8 25.7 0.00 0.28 0.28 84 1009.8
20260506204759 20 238 4.8 25.7 0.00 0.28 0.28 84 1010.0
20260506204229 20 237 11.3 24.1 0.00 0.28 0.28 85 1010.1
20260506203659 20 330 3.2 24.1 0.00 0.28 0.28 84 1010.1
20260506203159 20 267 11.3 25.7 0.00 0.28 0.28 84 1009.8
20260506202628 20 219 6.4 25.7 0.00 0.28 0.28 85 1010.0
20260506202058 20 234 11.3 20.9 0.00 0.28 0.28 85 1010.0
20260506201600 20 264 4.8 24.1 0.00 0.28 0.28 84 1010.1
20260506201259 20 252 8.0 24.1 0.00 0.28 0.28 84 1010.2
20260506200458 20 231 6.4 24.1 0.00 0.28 0.28 84 1010.0
20260506195958 20 225 4.8 19.3 0.00 0.28 0.28 84 1010.0
20260506195652 20 273 11.3 30.6 0.00 0.28 0.28 85 1010.0
20260506194857 20 203 9.7 30.6 0.00 0.28 0.28 86 1010.2
20260506194357 20 190 8.0 24.1 0.00 0.28 0.28 85 1010.3
20260506193828 20 233 12.9 27.4 0.00 0.28 0.28 83 1010.2
20260506193256 20 208 9.7 27.4 0.00 0.28 0.28 85 1009.9
20260506192757 20 210 9.7 14.5 0.00 0.28 0.28 85 1010.2
20260506192227 20 228 9.7 20.9 0.00 0.28 0.28 86 1010.1
20260506191656 20 219 14.5 20.9 0.00 0.28 0.28 85 1010.6
20260506191415 20 193 8.0 22.5 0.00 0.28 0.28 85 1010.4
20260506190846 20 8 3.2 22.5 0.00 0.28 0.28 85 1010.4
20260506190108 20 196 4.8 17.7 0.00 0.28 0.28 86 1010.6
20260506185826 20 207 9.7 22.5 0.00 0.28 0.28 86 1010.4
20260506185033 20 225 9.7 24.1 0.00 0.28 0.28 86 1010.7
20260506184455 20 238 12.9 24.1 0.00 0.28 0.28 85 1010.6
20260506183955 20 231 11.3 24.1 0.00 0.28 0.28 84 1010.9
20260506183425 19 218 12.9 35.4 0.00 0.28 0.28 85 1010.7
20260506182855 19 210 14.5 35.4 0.00 0.28 0.28 85 1011.0
20260506182618 20 233 14.5 27.4 0.00 0.28 0.28 86 1011.0
20260506182042 20 201 16.1 27.4 0.00 0.28 0.28 87 1011.0
20260506181255 19 218 16.1 27.4 0.00 0.28 0.28 86 1011.1
20260506180754 19 196 17.7 24.1 0.00 0.28 0.28 87 1011.0
20260506180225 19 196 12.9 27.4 0.00 0.28 0.28 87 1011.3
20260506175653 18 215 11.3 29.0 0.00 0.28 0.28 87 1011.1
20260506175154 18 245 4.8 30.6 0.00 0.28 0.28 87 1011.4
20260506174623 18 216 16.1 30.6 0.00 0.28 0.28 89 1011.3
20260506174326 18 201 9.7 22.5 0.00 0.28 0.28 89 1011.4
20260506173553 18 220 14.5 24.1 0.00 0.28 0.28 90 1011.1
20260506173249 18 147 3.2 32.2 0.00 0.28 0.28 91 1011.4
20260506172453 18 182 16.1 32.2 0.00 0.28 0.28 91 1011.6
20260506171953 18 229 11.3 27.4 0.00 0.28 0.28 91 1011.4
20260506171644 18 212 9.7 30.6 0.00 0.28 0.28 91 1011.4
20260506170922 18 132 4.8 30.6 0.00 0.28 0.28 91 1011.7
20260506170354 17 230 12.9 29.0 0.00 0.28 0.28 91 1011.5
20260506165823 17 238 12.9 40.2 0.00 0.28 0.28 93 1011.5
20260506165322 17 217 16.1 40.2 0.00 0.28 0.28 94 1011.7
20260506164752 17 208 11.3 20.9 0.00 0.28 0.28 95 1011.6
20260506164223 17 220 4.8 25.7 0.00 0.28 0.28 96 1011.6
20260506163723 17 204 11.3 25.7 0.03 0.28 0.28 96 1011.5
20260506163151 17 179 12.9 29.0 0.05 0.28 0.28 96 1011.6
20260506162841 17 208 14.5 19.3 0.05 0.28 0.28 97 1011.6
20260506162123 17 150 12.9 17.7 0.05 0.28 0.28 97 1011.5
20260506161550 17 256 3.2 24.1 0.05 0.28 0.28 98 1011.7
20260506161024 16 261 0.0 24.1 0.05 0.28 0.28 99 1011.9
20260506160745 16 215 6.4 25.7 0.05 0.28 0.28 100 1012.2
20260506160229 16 213 24.1 25.7 0.05 0.28 0.28 100 1012.1
20260506155420 16 210 6.4 19.3 0.08 0.28 0.28 100 1011.8
20260506154349 16 191 9.7 19.3 0.15 0.28 0.28 100 1011.9
20260506153821 16 113 3.2 17.7 0.15 0.25 0.25 100 1011.9
20260506153321 16 207 4.8 22.5 0.15 0.23 0.23 100 1011.9
20260506152749 16 228 6.4 22.5 0.18 0.23 0.23 100 1012.0
20260506152442 16 146 3.2 22.5 0.20 0.23 0.23 100 1012.9
20260506151721 16 141 6.4 22.5 0.18 0.23 0.23 100 1012.7
20260506151148 16 224 11.3 12.9 0.18 0.23 0.23 100 1012.8
20260506150619 15 184 4.8 11.3 0.20 0.23 0.23 100 1012.9
20260506150119 16 235 4.8 9.7 0.20 0.23 0.23 100 1012.7
20260506145549 15 224 8.0 9.7 0.20 0.20 0.20 100 1012.7
20260506145021 16 206 3.2 9.7 0.18 0.18 0.18 99 1012.8
20260506144520 16 202 6.4 16.1 0.15 0.15 0.15 99 1012.9
20260506143951 16 213 8.0 17.7 0.10 0.10 0.10 98 1012.8
20260506143418 16 197 8.0 14.5 0.08 0.08 0.08 96 1012.8
20260506143142 16 284 3.2 12.9 0.05 0.05 0.05 96 1012.9
20260506142348 16 208 6.4 19.3 0.05 0.05 0.05 95 1012.7
20260506141818 16 139 6.4 19.3 0.03 0.03 0.03 94 1012.7
20260506141545 16 158 3.2 19.3 0.03 0.03 0.03 93 1013.0
20260506140748 16 192 3.2 19.3 0.03 0.03 0.03 93 1012.9
20260506140218 17 239 3.2 20.9 0.03 0.03 0.03 91 1012.9
20260506135716 17 197 16.1 20.9 0.00 0.00 0.00 87 1012.9
20260506135405 17 216 14.5 24.1 0.00 0.00 0.00 84 1012.9
20260506134615 17 182 8.0 24.1 0.00 0.00 0.00 83 1013.2
20260506134116 17 254 3.2 19.3 0.00 0.00 0.00 83 1013.3
20260506133546 18 221 9.7 19.3 0.00 0.00 0.00 81 1013.1
20260506133015 18 166 14.5 17.7 0.00 0.00 0.00 81 1012.9
20260506132516 18 217 6.4 20.9 0.00 0.00 0.00 80 1012.9
20260506131945 18 175 17.7 17.7 0.00 0.00 0.00 80 1012.8
20260506131649 18 165 11.3 19.3 0.00 0.00 0.00 80 1013.0
20260506130915 18 171 12.9 20.9 0.00 0.00 0.00 79 1012.7
20260506130345 18 213 8.0 20.9 0.00 0.00 0.00 80 1012.6
20260506125814 18 225 8.0 12.9 0.00 0.00 0.00 80 1012.4
20260506125315 18 210 3.2 25.7 0.00 0.00 0.00 79 1012.8
20260506124744 18 219 6.4 25.7 0.00 0.00 0.00 79 1012.6
20260506124214 18 183 8.0 20.9 0.00 0.00 0.00 79 1012.6
20260506123714 18 206 8.0 19.3 0.00 0.00 0.00 79 1012.7
20260506123144 18 167 4.8 17.7 0.00 0.00 0.00 79 1012.7
20260506122613 18 234 9.7 17.7 0.00 0.00 0.00 79 1012.9
20260506122114 18 191 3.2 20.9 0.00 0.00 0.00 79 1013.0
20260506121543 18 267 4.8 22.5 0.00 0.00 0.00 79 1012.7
20260506121013 18 230 17.7 24.1 0.00 0.00 0.00 79 1012.9
20260506120512 18 231 19.3 24.1 0.00 0.00 0.00 79 1012.9
20260506115944 18 192 9.7 19.3 0.00 0.00 0.00 79 1012.8
20260506115413 18 202 4.8 20.9 0.00 0.00 0.00 79 1012.7
20260506115129 18 235 16.1 20.9 0.00 0.00 0.00 79 1012.8
20260506114609 18 223 6.4 20.9 0.00 0.00 0.00 79 1012.8
20260506113843 18 231 16.1 20.9 0.00 0.00 0.00 79 1012.6
20260506113312 18 212 6.4 22.5 0.00 0.00 0.00 79 1012.4
20260506112743 18 197 8.0 22.5 0.00 0.00 0.00 79 1012.4
20260506112242 18 175 9.7 20.9 0.00 0.00 0.00 79 1012.6
20260506111712 18 217 3.2 20.9 0.00 0.00 0.00 80 1012.4
20260506111140 18 206 4.8 20.9 0.00 0.00 0.00 81 1012.3
20260506110641 18 222 12.9 20.9 0.00 0.00 0.00 81 1012.3
20260506110345 18 227 8.0 22.5 0.00 0.00 0.00 81 1012.4
20260506105541 18 206 11.3 24.1 0.00 0.00 0.00 81 1012.3
20260506105042 18 224 4.8 24.1 0.00 0.00 0.00 81 1012.4
20260506103941 18 263 8.0 22.5 0.00 0.00 0.00 81 1012.3
20260506103705 18 145 8.0 22.5 0.00 0.00 0.00 81 1012.4
20260506102911 18 240 8.0 30.6 0.00 0.00 0.00 82 1012.0
20260506102340 18 225 4.8 30.6 0.00 0.00 0.00 82 1012.2
20260506101309 18 140 6.4 17.7 0.00 0.00 0.00 82 1012.0
20260506100740 18 299 1.6 22.5 0.00 0.00 0.00 82 1012.0
20260506100240 17 242 4.8 22.5 0.00 0.00 0.00 82 1012.1
20260506095709 17 153 6.4 17.7 0.00 0.00 0.00 82 1012.3
20260506095416 18 220 11.3 17.7 0.00 0.00 0.00 81 1012.0
20260506094638 18 241 3.2 19.3 0.00 0.00 0.00 82 1012.0
20260506094109 18 150 11.3 20.9 0.00 0.00 0.00 81 1012.3
20260506093538 18 222 8.0 22.5 0.00 0.00 0.00 81 1012.2
20260506093039 18 224 8.0 22.5 0.00 0.00 0.00 81 1012.2
20260506092507 18 202 6.4 19.3 0.00 0.00 0.00 81 1012.2
20260506091938 18 183 6.4 19.3 0.00 0.00 0.00 80 1012.2